Location: Eppenbrunn
(49.1158°N, 7.5601°E)
Time: 16:43:50
(UTC+00:00)

IGS 5A - Pass Details

Date: 17 August 2020
Orbit: 583 x 588 km, 97.6° (Epoch: 26 September)

Event Time Altitude Azimuth Distance (km) Brightness Sun altitude
Exits shadow 20:43:39 24° 184° (S) 1,226 4.7 -17.4°
Maximum altitude 20:46:01 63° 259° (W) 660 3.8 -17.7°
Drops below altitude 10° 20:50:10 10° 341° (NNW) 1,927 7.1 -18.1°
Sets 20:52:21 0° 345° (NNW) 2,832 8.1 -18.4°
